ROMMA est une association bénévole à but non lucratif. Votre soutien est indispensable : ADHERER à ROMMA ou FAIRE un DON

Engins - (38, Isère)

Vercors (906 m)   Longitude: 05° 37' E   Latitude: 45° 11' N Station partenaire n°139
 

Détail journalier du     <<     >>

Température Precipitation Humidité Vent Dir Rafale Dir. rafale Ensol.
Heure (°C) (mm) (%) (km/h) (km/h) (min)
01:00 8.60806SSO15SO0
02:00 7.80835O11O0
03:00 7.30863O10O0
04:00 7.90835ONO13ONO0
05:00 7.10825NO11NO0
06:00 5.70855SO15S0
07:00 5.608411SSO31SSO0
08:00 5.808113SSO32SSE0
09:00 6.608010SSO24SSE10
10:00 9.207312SSO27SSE60
11:00 11.40719S24SSE60
12:00 13.70674E10SSE60
13:00 14.60673E6E60
14:00 15.70683ENE8E60
15:00 16.10702ENE6NE60
16:00 17.70592ENE5ENE60
17:00 15.70681NNO6NNO55
18:00 13.10772NNO6NNO0
19:00 13.00743NNO6NNO0
20:00 12.60752NNO6NNO0
21:00 12.70693NNO6NNO0
22:00 13.10677SSO19SSO0
23:00 12.20649SSO19SSO0
minuit 11.70647SO16OSO0

Graphique du 11-10-2019

 

Serveur OMMA